Puma Centex Invitational
Hosted by: Cedar Park High School
September 23, 2006
JV Girls
Two Miles, Official Results

Back to Main Page



Place Team Score   1st 2nd 3rd 4th 5th 6th 7th
1 Georgetown 62   3 10 12 14 23 28 29
2 Belton 109   13 16 18 27 35 37 46
3 Vista Ridge 123   20 22 24 26 31 38 56
4 Harker Heights 206   9 11 34 58 94 110 111
5 McNeil 222   1 41 42 68 70 71 75
6 Pflugerville 228   19 36 51 60 62 85 105
7 Temple 259   39 43 50 61 66 77 97
8 Austin 285   2 44 73 80 86 90 93
9 Del Valle 334   5 55 64 67 143 144  
10 New Braunfels 353   15 30 79 109 120 121 123
11 Westwood 354   45 54 78 88 89 91 102
12 Copperas Cove 354   25 63 81 84 101 116  
13 Mayde Creek 367   49 52 53 83 130 147  
14 Leander 427   47 76 82 108 114 119 139
15 Elgin 429   4 69 112 117 127 134  
16 Burnet 470   17 72 107 125 149    
17 Round Rock 476   6 103 115 124 128 135 141
18 Stony Point 523   65 95 98 132 133 142 145
19 Taylor 564   99 104 113 122 126 131 155
20 Austin Royals 597   74 87 138 148 150 151  
21 Lanier 776   152 153 154 158 159 162  

Place Points Name Team Team Place Grade Time Mile Pace
1 1 Steel, Ashley McNeil 1 9 12:54 6:27
2 2 Williams, Meredith Austin 1   13:01 6:31
3 3 Borges, Aubrey Georgetown 1   13:14 6:37
4 4 Araujo, Crystal Elgin 1   13:19 6:40
5 5 Teka, Hanah Del Valle 1   13:28 6:44
6 6 Collins, Carmen Round Rock 1 11 13:31 6:46
7 7 Bula, Joli Cedar Park 1   13:45 6:53
8 8 Rodriguez, Alex Cedar Park 2   13:47 6:54
9 9 Lambert, Rebecca Harker Heights 1   13:47 6:54
10 10 Liu, Briana Georgetown 2   13:48 6:54
11 11 Shirley, Aurora Harker Heights 2   13:52 6:56
12 12 Dahl, Beth Georgetown 3   13:53 6:57
13 13 Herd, Chris Belton 1   13:54 6:57
14 14 Terrazas, Leticia Georgetown 4   13:57 6:59
15 15 Loyola, Lucia New Braunfels 1   13:58 6:59
16 16 Martinez, Stephanie Belton 2   13:59 6:60
17 17 Ramirez, Liliana Burnet 1   14:02 7:01
18 18 Pishner, Rebecca Belton 3   14:02 7:01
19 19 Pyka, Amanda Pflugerville 1   14:03 7:02
20 20 Lee, Bethany Vista Ridge 1   14:03 7:02
21 21 Perez, Bridget Liberty Hilll 1   14:07 7:04
22 22 Hutt, Cassie Vista Ridge 2   14:07 7:04
23 23 Lawhon, Catherine Georgetown 5   14:08 7:04
24 24 Langford, Shelby Vista Ridge 3   14:11 7:06
25 25 Lumpkin, Cara Copperas Cove 1   14:11 7:06
26 26 Mennitt, Rainee Vista Ridge 4   14:12 7:06
27 27 Lujan, Lisha Belton 4   14:12 7:06
28 28 Guzman, Erica Georgetown 6   14:13 7:07
29 29 Rieckhoff, Kristie Georgetown 7   14:16 7:08
30 30 Krawezyk, Kirby New Braunfels 2   14:19 7:10
31 31 Smyth, Danielle Vista Ridge 5   14:20 7:10
32 32 Whitehead, Marissa Lago Vista 1   14:20 7:10
33 33 Reyes, Toni Lago Vista 2   14:23 7:12
34 34 Jefferson, Brittiany Harker Heights 3   14:25 7:13
35 35 Whitlock, Dalaine Belton 5   14:27 7:14
36 X Burgert, Madison Georgetown 8   14:28 7:14
37 36 Morales, Vanessa Pflugerville 2   14:29 7:15
38 37 Jay, Brittany Belton 6   14:29 7:15
39 38 Carrion, Courtney Vista Ridge 6   14:31 7:16
40 39 Muniz, Lauren Temple 1   14:32 7:16
41 40 Christian, Alissa Hays 1   14:32 7:16
42 41 Reyes, Jenny McNeil 2 9 14:36 7:18
43 42 Myers-Steiner, Lyndsay McNeil 3 11 14:39 7:20
44 X Thomasson, Jennifer Georgetown 9   14:40 7:20
45 43 Farrell, Meghan Temple 2   14:41 7:21
46 44 Loesch, Aimee Austin 2   14:44 7:22
47 45 Cunningham, Allison Westwood 1   14:45 7:23
48 46 Reichman, Brittany Belton 7   14:46 7:23
49 47 Ordenez, Mercedes Leander 1 9 14:47 7:24
50 48 Shallue, Kendall Lago Vista 3   14:47 7:24
51 X Burks, Cori Georgetown 10   14:48 7:24
52 49 Perez, Laura Mayde Creek 1 9 14:50 7:25
53 X Martinez, Sam Belton 8   14:53 7:27
54 50 Lewis, Jayelyn Temple 3   14:54 7:27
55 51 Dziewa, JoAnna Pflugerville 3   14:55 7:28
56 52 Conrado, Gabbi Mayde Creek 2 11 14:55 7:28
57 53 Khan, Nadia Mayde Creek 3 11 14:56 7:28
58 54 Gunn, Erica Westwood 2   14:57 7:29
59 55 Munguia, Devina Del Valle 2   14:57 7:29
60 56 Mennitt, Christi Vista Ridge 7   14:59 7:30
61 57 Scott, Alysia Hays 2   14:59 7:30
62 58 Tarvin, Rebekah Harker Heights 4   14:59 7:30
63 X Cosper, Sierra Belton 9   14:59 7:30
64 X Gracia, Sophia Belton 10   15:00 7:30
65 59 Padron, Miriam Hays 3   15:02 7:31
66 60 Barretero, Britteny Pflugerville 4   15:03 7:32
67 61 Klypus, Emily Temple 4   15:05 7:33
68 X Osborne, Leah Belton 11   15:07 7:34
69 62 Cadena, Cat Pflugerville 5   15:09 7:35
70 63 Spence, Haley Copperas Cove 2   15:10 7:35
71 64 Aguirre, Yulmanelly Del Valle 3   15:11 7:36
72 X Ober, Niki Belton 12   15:11 7:36
73 65 Galvan, Sabrina Stony Point 1   15:12 7:36
74 66 Acosta, Diana Temple 5   15:13 7:37
75 X Frias, Carolina Belton 13   15:14 7:37
76 67 Quinones, Chrystal Del Valle 4   15:14 7:37
77 68 Rabushka, Talia McNeil 4 9 15:15 7:38
78 69 Kuykendall, Heather Elgin 2   15:15 7:38
79 70 Meyer, Breanna McNeil 5 11 15:16 7:38
80 71 Vanzanden, Brandie McNeil 6 11 15:17 7:39
81 X Lovelace, Kallie Belton 14   15:18 7:39
82 72 Scoggins, Heather Burnet 2   15:19 7:40
83 73 Breeding, Vanessa Austin 3   15:20 7:40
84 74 Richards, Anna Austin Royals 1   15:20 7:40
85 75 Miller, Rebekah McNeil 7 9 15:21 7:41
86 X Lam, Milly McNeil 8 10 15:21 7:41
87 76 Lynch, Jessie Leander 2 10 15:22 7:41
88 77 Ransleban, Cassie Temple 6   15:23 7:42
89 78 Rosenblum, Shelbie Westwood 3   15:24 7:42
90 79 Whitehead, Amber New Braunfels 3   15:27 7:44
91 80 Simmons, Ashly Austin 4   15:29 7:45
92 X Bean, Rose Vista Ridge 8   15:30 7:45
93 81 McGovern, Harley Copperas Cove 3   15:31 7:46
94 82 Croxton, Megan Leander 3 9 15:31 7:46
95 83 Reed, Stephanie Mayde Creek 4 11 15:34 7:47
96 84 Leffingwell, Nicole Copperas Cove 4   15:35 7:48
97 X Hilsberg, Brandi Georgetown 11   15:37 7:49
98 85 Bailey, Jen Pflugerville 6   15:39 7:50
99 86 Canada, Kyla Austin 5   15:39 7:50
100 87 harris, Judith Austin Royals 2   15:41 7:51
101 88 Wong, Iris Westwood 4   15:42 7:51
102 X Ross, Tiana Georgetown 12   15:42 7:51
103 89 Marino, Chelsea Westwood 5   15:44 7:52
104 90 Arelleno, Amber Austin 6   15:44 7:52
105 91 Alvarado, Emily Westwood 6   15:45 7:53
106 92 Bula, Jami Cedar Park 3   15:46 7:53
107 93 Joseph, Cathrine Austin 7   15:46 7:53
108 94 Lacy, Kim Harker Heights 5   15:49 7:55
109 95 Torres, Loren Stony Point 2   15:50 7:55
110 96 Ritchie, Kirsten Waldorf 1   15:50 7:55
111 X Conde, Mimi Vista Ridge 9   15:51 7:56
112 97 Armstrong, Sasha Temple 7   15:52 7:56
113 X Hernandez, Samantha Temple 8   15:55 7:58
114 98 Lawrence, Ashley Stony Point 3   15:57 7:59
115 99 Griffin, Kaneisha Taylor 1   15:57 7:59
116 100 Garcia, Andrea Johnston 1   15:57 7:59
117 X Brockman, Ashley Belton 15   15:58 7:59
118 101 Shepperson, Sydny Copperas Cove 5   15:58 7:59
119 102 Banovic, Aryn Westwood 7   15:58 7:59
120 X Cruz, Desiree Temple 9   15:59 7:60
121 103 Baker, Courtney Round Rock 2 10 15:59 7:60
122 X Kabobel, Meagan Temple 10   16:02 8:01
123 104 Tone, Devyn Taylor 2   16:02 8:01
124 X Litos, Jennifer Georgetown 13   16:03 8:02
125 X Shockley, Jessica McNeil 9 11 16:04 8:02
126 105 Esquivel, Alison Pflugerville 7   16:04 8:02
127 X Rodriguez, Angel Temple 11   16:05 8:03
128 106 Caputo, Camille Waldorf 2   16:06 8:03
129 107 Wilfong, Stormie Burnet 3   16:07 8:04
130 X MacGregor, Yumi Westwood 8   16:07 8:04
131 X Jackson-Moore, Victoria Austin 8   16:11 8:06
132 108 Duru, Chioma Leander 4 11 16:12 8:06
133 109 Ralph, Jessica New Braunfels 4   16:13 8:07
134 110 Homsi, Reem Harker Heights 6   16:13 8:07
135 111 Ritchey, Jackie Harker Heights 7   16:16 8:08
136 X Walker, Tiffany McNeil 10 11 16:16 8:08
137 112 Guerrero, Veronica Elgin 3   16:16 8:08
138 X Nath, Arissa Austin 9   16:18 8:09
139 113 Gabel, Brooke Taylor 3   16:18 8:09
140 114 Njoku, Darlene Leander 5 9 16:19 8:10
141 115 Boehm, Michelle Round Rock 3 10 16:19 8:10
142 X Vuoung, Salina McNeil 11 10 16:19 8:10
143 116 Tucker, Megan Copperas Cove 6   16:20 8:10
144 X Hanson, Taylor Georgetown 14   16:20 8:10
145 117 Avila, Alma Elgin 4   16:21 8:11
146 118 Guzman, Monse Hendrickson 1   16:21 8:11
147 X Short, Christine Westwood 9   16:21 8:11
148 119 Hawks, Allison Leander 6 10 16:22 8:11
149 120 Perez, Ali New Braunfels 5   16:24 8:12
150 X Twidwell, Monica Temple 12   16:27 8:14
151 X Bontempo, Claire Westwood 10   16:28 8:14
152 X Brauel, Lauren Westwood 11   16:28 8:14
153 121 Gomez, Kricilla New Braunfels 6   16:28 8:14
154 122 Johnson, Sarah Taylor 4   16:30 8:15
155 X Hoelscher, Amanda Temple 13   16:31 8:16
156 123 Potter, Michelle New Braunfels 7   16:32 8:16
157 X Florez, Ariane Temple 14   16:37 8:19
158 124 Scott, Jessie Round Rock 4 11 16:37 8:19
159 X Gonzalez, Caroline Temple 15   16:38 8:19
160 X Gustufsson, Karin Austin 10   16:40 8:20
161 X Prescott, Katie Georgetown 15   16:41 8:21
162 125 Everett, Allison Burnet 4   16:42 8:21
163 126 Holman, Megan Taylor 5   16:45 8:23
164 X Oot, Tara Westwood 12   16:46 8:23
165 127 Arreola, Maria Elgin 5   16:47 8:24
166 X Cervantez, Nikki Temple 16   16:48 8:24
167 128 Kirk, Katie Round Rock 5 11 16:50 8:25
168 X Chevalier, Candace McNeil 12 9 16:53 8:27
169 129 McCabe, Megan St. Michael's Academy 1   16:55 8:28
170 130 Messenger, Grace Mayde Creek 5 11 16:56 8:28
171 X Serna, Aliry Georgetown 16   16:57 8:29
172 131 Howard, Jenna Taylor 6   16:57 8:29
173 X Geleta, Nia McNeil 13 9 16:59 8:30
174 X Lindgren, Emily Westwood 13   17:01 8:31
175 X Yu, Lily Westwood 14   17:02 8:31
176 X Tadlock, Sarah Georgetown 17   17:03 8:32
177 132 Carter, Samantha Stony Point 4   17:05 8:33
178 133 Donnell, Brittany Stony Point 5   17:06 8:33
179 134 Garcia, Amber Elgin 6   17:08 8:34
180 135 Matulce, Jennifer Round Rock 6 9 17:08 8:34
181 X Marshall, Courtney Temple 17   17:09 8:35
182 X Mayo, Kaneasha Harker Heights 8   17:10 8:35
183 X Pare, Meghan Belton 16   17:11 8:36
184 X Mayo, LaTeasha Harker Heights 9   17:13 8:37
185 136 Arpero, Pearla Johnston 2   17:14 8:37
186 X Gordon, Olivia Westwood 15   17:15 8:38
187              
188 X Gibbs, Katie Belton 17   17:16 8:38
189 137 Ruiz, Gaby St. Michael's Academy 2   17:19 8:40
190 138 Adams, Alex Austin Royals 3   17:19 8:40
191 X Onderick, Mary Westwood 16   17:20 8:40
192 139 Hampton, Courtnie Leander 7 11 17:21 8:41
193 X Conti, Alyssa Belton 18   17:22 8:41
194 X Gutierrez, Elida Belton 19   17:24 8:42
195 X Williams-Carter, Jasmine Harker Heights 10   17:25 8:43
196 140 Brougher, Molly Round Rock Christian 1   17:27 8:44
197 141 Pham, Minh Round Rock 7 9 17:30 8:45
198 X Jackson, Sarah Round Rock 8 12 17:32 8:46
199 X Williams, Courtney Austin 11   17:32 8:46
200 X Mock, Jariam Round Rock 9 10 17:39 8:50
201 142 Martinez, Sierra Stony Point 6   17:47 8:54
202 X Key, Alana McNeil 14 9 17:48 8:54
203 X McMillian, Elaina Westwood 17   17:48 8:54
204 143 Acosta, Victoria Del Valle 5   17:49 8:55
205 144 Ojeda, Nina Del Valle 6   17:51 8:56
206 X Shirley, Larissa Harker Heights 11   18:00 9:00
207 X O'Grady, Kali Temple 18   18:10 9:05
208 X McDkiff, Collette Round Rock 10 10 18:11 9:06
209 X Smith, Madaline Austin 12   18:11 9:06
210 145 Miller, Eiryn Stony Point 7   18:17 9:09
211 146 Diep, Annie Lake Travis 1 9 18:17 9:09
212 147 Shedd, Lauren Mayde Creek 6 9 18:18 9:09
213 148 Snow, Gracey Austin Royals 4   18:23 9:12
214 149 Qualls, Kayle Burnet 5   18:24 9:12
215 X Ciceri, Andrea Temple 19   18:33 9:17
216 X Hodge, Epiphany Harker Heights 12   18:39 9:20
217 150 Snow, Lindsay Austin Royals 5   18:43 9:22
218 151 Harris, Melissa Austin Royals 6   18:53 9:27
219 152 Pandora, Veronica Lanier 1   19:06 9:33
220 153 Castelan, Itzel Lanier 2   19:08 9:34
221 X Burnam, Rachel Austin 13   19:11 9:36
222 X Chavez, Miriam Austin 14   19:12 9:36
223 X Reyes, Nayeli Austin 15   19:14 9:37
224 X Moreno, Vanessa Temple 20   19:16 9:38
225 X Brandewie, Lauren McNeil 15 11 19:19 9:40
226 X Milligan, Daphny Temple 21   19:20 9:40
227 X Daycock, Julia Round Rock 11 11 19:21 9:41
228 X Perez, Jessica New Braunfels 8   19:32 9:46
229 154 Tavera, Rosebel Lanier 3   19:33 9:47
230 155 Martinez, Kristin Taylor 7   19:39 9:50
231 X Hansen, Kim McNeil 16 9 19:44 9:52
232 X Pearson, Megan McNeil 17 9 19:46 9:53
233 156 Mozejko, Lisa Lake Travis 2 11 19:53 9:57
234 X Rasamny, Rana Round Rock 12 9 19:55 9:58
235 157 Bole, Brenna Liberty Hilll 2   20:01 10:01
236 X Moreno, Samantha Temple 22   20:07 10:04
237 158 Coccitti, Brittany Lanier 4   20:07 10:04
238 X Wagner, Rebecca Westwood 18   20:13 10:07
239 159 Rosas, Janette Lanier 5   20:24 10:12
240 X Rendon, Anna Round Rock 13 12 20:36 10:18
241 X Thomas, Lexus Temple 23   20:44 10:22
242 X Hamer, Abby Stony Point 8   20:53 10:27
243 160 Sova, Stephanie Liberty Hilll 3   21:01 10:31
244 161 Auther, Ceirra Hendrickson 2   21:03 10:32
245 X Rogers, Elaenor Austin 16   21:09 10:35
246 X Long, Tiyesha Temple 24   21:45 10:53
247 X Barton, Jessica Temple 25   22:23 11:12
248 X Colon, Yari Harker Heights 13   22:39 11:20
249 162 Alvarez, Erica Lanier 6   22:40 11:20
250 X Burns, Caitlyn Temple 26   22:48 11:24




Last Updated on 09/23/2006
Email: steve@oharasteve.com